When you browse on this site, cookies collect data to enhance your experience and personalize the content and advertising you see.
Visit our Privacy Policy to learn more. By continuing to use the site, you agree to this use of cookies and data.
  • In Schweiz
  • Länderverzeichnis
  • Für 7 Tage
  • Wassertemperatur
  • Satellitenkarten
  • Wetterkarte
  • Widgets
  • user-avatar
    Anmelden

    Stündliche Wetter Plav'ya

    Heute, 20 April, Samstag

    Zeit Temperatur Niederschläge Wind Luftdruck Luftfeuchtigkeit
    00:00 +8°C° 0 mm 2 m/S 738 mmHg 76%
    01:00 +7°C° 0 mm 2 m/S 738 mmHg 77%
    02:00 +7°C° 0 mm 2 m/S 738 mmHg 79%
    03:00 +7°C° 0 mm 2 m/S 738 mmHg 80%
    04:00 +7°C° 0 mm 2 m/S 738 mmHg 78%
    05:00 +8°C° 0 mm 1 m/S 738 mmHg 77%
    06:00 +8°C° 0 mm 1 m/S 738 mmHg 78%
    07:00 +8°C° 0 mm 1 m/S 738 mmHg 80%
    08:00 +9°C° 0 mm 1 m/S 738 mmHg 84%
    09:00 +10°C° 0 mm 1 m/S 738 mmHg 83%
    10:00 +12°C° 0 mm 1 m/S 739 mmHg 79%
    11:00 +13°C° 0 mm 1 m/S 739 mmHg 79%
    12:00 +13°C° 0 mm 1 m/S 738 mmHg 75%
    13:00 +14°C° 0 mm 2 m/S 738 mmHg 74%
    14:00 +14°C° 0 mm 2 m/S 738 mmHg 73%
    15:00 +13°C° 0 mm 3 m/S 738 mmHg 74%
    16:00 +14°C° 0.1 mm 1 m/S 737 mmHg 76%
    17:00 +14°C° 0 mm 1 m/S 737 mmHg 72%
    18:00 +14°C° 0 mm 2 m/S 736 mmHg 77%
    19:00 +13°C° 0 mm 1 m/S 736 mmHg 85%
    20:00 +12°C° 0 mm 1 m/S 736 mmHg 84%
    21:00 +12°C° 0 mm 1 m/S 736 mmHg 84%
    22:00 +12°C° 0 mm 1 m/S 735 mmHg 86%
    23:00 +9°C° 1.4 mm 2 m/S 735 mmHg 99%

    Morgen, 21 April, Sonntag

    Zeit Temperatur Niederschläge Wind Luftdruck Luftfeuchtigkeit
    00:00 +10°C° 2.1 mm 1 m/S 735 mmHg 100%
    01:00 +10°C° 0 mm 1 m/S 734 mmHg 100%
    02:00 +9°C° 1.5 mm 1 m/S 734 mmHg 100%
    03:00 +10°C° 0.2 mm 1 m/S 734 mmHg 100%
    04:00 +10°C° 0 mm 1 m/S 733 mmHg 100%
    05:00 +9°C° 0 mm 1 m/S 733 mmHg 100%
    06:00 +9°C° 0 mm 1 m/S 733 mmHg 99%
    07:00 +9°C° 0 mm 2 m/S 733 mmHg 98%
    08:00 +10°C° 0 mm 2 m/S 733 mmHg 93%
    09:00 +12°C° 0 mm 2 m/S 733 mmHg 90%
    10:00 +12°C° 0 mm 3 m/S 733 mmHg 87%
    11:00 +12°C° 0 mm 3 m/S 733 mmHg 81%
    12:00 +13°C° 0 mm 3 m/S 733 mmHg 77%
    13:00 +13°C° 0.1 mm 3 m/S 732 mmHg 88%
    14:00 +13°C° 1.1 mm 4 m/S 732 mmHg 92%
    15:00 +11°C° 2.5 mm 4 m/S 731 mmHg 95%
    16:00 +13°C° 0.5 mm 1 m/S 731 mmHg 90%
    17:00 +11°C° 1.1 mm 4 m/S 730 mmHg 100%
    18:00 +12°C° 1.8 mm 1 m/S 730 mmHg 95%
    19:00 +12°C° 0 mm 2 m/S 730 mmHg 97%
    20:00 +11°C° 0 mm 1 m/S 730 mmHg 100%
    21:00 +10°C° 0 mm 1 m/S 730 mmHg 99%
    22:00 +9°C° 0 mm 0 m/S 730 mmHg 94%
    23:00 +9°C° 0 mm 0 m/S 730 mmHg 93%

    übermorgen, 22 April, Montag

    Zeit Temperatur Niederschläge Wind Luftdruck Luftfeuchtigkeit
    00:00 +10°C° 0 mm 1 m/S 730 mmHg 91%
    01:00 +10°C° 0 mm 1 m/S 730 mmHg 90%
    02:00 +9°C° 0 mm 1 m/S 730 mmHg 90%
    03:00 +8°C° 0 mm 2 m/S 730 mmHg 89%
    04:00 +8°C° 0 mm 2 m/S 729 mmHg 87%
    05:00 +9°C° 0 mm 1 m/S 729 mmHg 83%
    06:00 +9°C° 0 mm 1 m/S 729 mmHg 83%
    07:00 +9°C° 0 mm 1 m/S 730 mmHg 87%
    08:00 +11°C° 0 mm 1 m/S 730 mmHg 91%
    09:00 +11°C° 0 mm 3 m/S 730 mmHg 87%
    10:00 +12°C° 0 mm 4 m/S 730 mmHg 87%
    11:00 +13°C° 0 mm 4 m/S 730 mmHg 88%
    12:00 +13°C° 0.1 mm 4 m/S 730 mmHg 91%
    13:00 +13°C° 0.5 mm 3 m/S 730 mmHg 91%
    14:00 +14°C° 0 mm 4 m/S 730 mmHg 87%
    15:00 +10°C° 4.9 mm 4 m/S 730 mmHg 98%
    16:00 +12°C° 0.4 mm 3 m/S 730 mmHg 94%
    17:00 +13°C° 0 mm 6 m/S 730 mmHg 87%
    18:00 +13°C° 0.1 mm 6 m/S 730 mmHg 91%
    19:00 +11°C° 0 mm 7 m/S 730 mmHg 90%
    20:00 +9°C° 0 mm 7 m/S 731 mmHg 93%
    21:00 +8°C° 0 mm 7 m/S 731 mmHg 99%
    22:00 +8°C° 0.1 mm 7 m/S 731 mmHg 99%
    23:00 +8°C° 0 mm 7 m/S 731 mmHg 93%

    23 April, Dienstag

    Zeit Temperatur Niederschläge Wind Luftdruck Luftfeuchtigkeit
    00:00 +8°C° 0 mm 6 m/S 732 mmHg 93%
    01:00 +6°C° 0 mm 7 m/S 731 mmHg 92%
    02:00 +7°C° 0 mm 6 m/S 732 mmHg 92%
    03:00 +6°C° 0 mm 7 m/S 731 mmHg 92%
    04:00 +6°C° 0 mm 7 m/S 731 mmHg 89%
    05:00 +6°C° 0 mm 7 m/S 731 mmHg 86%
    06:00 +6°C° 0 mm 7 m/S 731 mmHg 84%
    07:00 +6°C° 0 mm 7 m/S 731 mmHg 83%
    08:00 +7°C° 0 mm 8 m/S 731 mmHg 83%
    09:00 +9°C° 0 mm 8 m/S 731 mmHg 83%
    10:00 +10°C° 0 mm 8 m/S 732 mmHg 84%
    11:00 +11°C° 0 mm 8 m/S 732 mmHg 84%
    12:00 +10°C° 0.1 mm 8 m/S 732 mmHg 94%
    13:00 +10°C° 2.1 mm 8 m/S 732 mmHg 100%
    14:00 +10°C° 3.9 mm 7 m/S 732 mmHg 100%

    24 April, Mittwoch

    Zeit Temperatur Niederschläge Wind Luftdruck Luftfeuchtigkeit

    25 April, Donnerstag

    Zeit Temperatur Niederschläge Wind Luftdruck Luftfeuchtigkeit
    Mehr zeigen